Regional Weather Roundup
Issued by NWS

Home | Current Version | Previous Version | Text Only | Print | Product List | Glossary Off
Versions: 1 2 3 4 5 6 7 8 9 10 11 12 13 14 15 16 17 18 19 20 21 22 23 24 25 26 27 28 29 30 31 32 33 34 35 36 37 38 39 40 41 42 43 44 45 46 47 48 49 50

298
ASUS45 KTFX 221110
RWRMT
MONTANA REGIONAL WEATHER ROUNDUP
NATIONAL WEATHER SERVICE GREAT FALLS MT
400 AM MST SUN JAN 22 2017

NOTE: "FAIR" INDICATES FEW OR NO CLOUDS BELOW 12000 FEET WITH NO
SIGNIFICANT WEATHER AND/OR OBSTRUCTIONS TO VISIBILITY.

MTZ001>007-043-221200-
WEST OF THE DIVIDE

CITY           SKY/WX    TMP DP  RH WIND       PRES   REMARKS
KALISPELL      CLOUDY    22  21  96 CALM      29.80S
MISSOULA       CLOUDY    21  20  96 CALM      29.83S FOG
BUTTE          CLOUDY    11   7  84 CALM      29.80S
MULLAN PASS    FOG       25  23  92 VRB6      29.68S VSB 3/4 WCI  18
ANACONDA         N/A     27  18  69 S9        29.79S WCI  17
DEER LODGE       N/A     16  12  86 CALM      29.83R
EUREKA           N/A     25  23  93 CALM      29.82S
HAMILTON         N/A     23  21  93 CALM        N/A
PLAINS           N/A     19  14  81 CALM      29.83R VSB 1
RONAN            N/A     25  23  91 CALM      29.84F VSB 0
$$

MTZ008-052>055-221200-
SOUTHWEST MONTANA

CITY           SKY/WX    TMP DP  RH WIND       PRES   REMARKS
BOZEMAN        CLOUDY    12   9  87 SE3       29.83R
DILLON         CLOUDY   N/A N/A N/A S9        29.81S
W YELLOWSTONE  LGT SNOW  21  19  93 SW5       29.85R
ENNIS          CLOUDY    25  19  80 SE7       29.88R WCI  17
TWIN BRIDGES     N/A     14   6  70 SE5       29.83S
$$

MTZ009-010-012-014-046-048-049-054-221200-
EAST SLOPES AND CENTRAL MONTANA

CITY           SKY/WX    TMP DP  RH WIND       PRES   REMARKS
CUT BANK       CLOUDY    21  19  92 N8        29.77R WCI  11
GREAT FALLS    CLOUDY    26  20  77 CALM      29.79R
MALMSTROM AFB  CLOUDY    24  22  89 CALM      29.80R
HELENA         CLOUDY     9   5  84 CALM      29.84R FOG
AUGUSTA        MOCLDY    23  18  80 CALM      29.77R
BOWMANS CRNR   MOCLDY    22  18  83 S12       29.75R WCI  11
CHOTEAU          N/A     19  18  93 S3        29.80R
CONRAD           N/A     16  13  88 CALM      29.82R
POWER          MOCLDY    23  17  79 N13       29.76S WCI  11
RAYNESFORD     MOCLDY    27  21  78 SW3       29.78R
ULM            MOCLDY    27  22  82 MISG      29.79R
$$

MTZ011-013-016-021-045-047-050-051-221200-
NORTH CENTRAL MONTANA

CITY           SKY/WX    TMP DP  RH WIND       PRES   REMARKS
HAVRE          CLOUDY    26  24  92 SW6       29.80R WCI  19
LEWISTOWN      CLEAR     22  16  78 SW13      29.76R WCI  10
CHINOOK          N/A     27  25  93 W6        29.80R WCI  20
DENTON           N/A     23  19  85 NW6G21    29.75R WCI  15
FORT BENTON      N/A     25  21  86 MISG      29.83R
GEYSER         MOCLDY    26  21  79 SW13      29.76R WCI  15
GRASS RANGE      N/A     26  20  76 W15       29.72R WCI  14
JUDITH GAP       N/A     27  14  59 NW5       29.75R
ROY              N/A     27  21  79 MISG      29.74R
STANFORD       MOCLDY    27  21  78 W14       29.76R WCI  15
WINIFRED         N/A     23  20  87 W8        29.76R WCI  14
$$

MTZ017>020-022>027-061-062-221200-
NORTHEAST MONTANA

CITY           SKY/WX    TMP DP  RH WIND       PRES   REMARKS
GLASGOW        CLOUDY    27  25  92 NW17      29.75R FOG     WCI  14
JORDAN           N/A     17  14  88 W5        29.76R
SIDNEY         CLOUDY    27  25  92 W7        29.74R FOG     WCI  19
WOLF POINT     CLOUDY    29  25  85 NW13      29.75R WCI  19
PLENTYWOOD       N/A     28  27  93 W13       29.68S WCI  18
POPLAR           N/A     23  21  93 W7        29.75R WCI  15
SCOBEY           N/A     28  21  75 NW10      29.70R WCI  19
$$

MTZ028>42-056>058-221200-
SOUTHCENTRAL AND SOUTHEAST MONTANA

CITY           SKY/WX    TMP DP  RH WIND       PRES   REMARKS
BAKER          CLOUDY    18  14  84 W10       29.73R WCI   6
BILLINGS       CLOUDY    27  18  69 SW15      29.79R WCI  15
LIVINGSTON     CLOUDY    24  16  71 NW8       29.79R WCI  15
MILES CITY     FOG       14  10  84 SW3       29.77R VSB 1
BIG TIMBER     PTCLDY    30  19  64 W15       29.80R WCI  19
EKALAKA          N/A     22  16  78 SW1       29.73R
FORSYTH          N/A     19  18  93 W6        29.77R WCI  11
HARLOWTON      MOCLDY    26  20  76 W14       29.77R WCI  15
LAUREL           N/A     24  12  60 W2        29.79R
$$

REGIONAL REPORTS...DAKOTAS

CITY           SKY/WX    TMP DP  RH WIND       PRES   REMARKS
WILLISTON      CLOUDY    30  28  92 W10       29.71R WCI  21
MINOT          CLOUDY    32  27  81 W17       29.65R WCI  21
DICKINSON      CLOUDY    14  11  87 W8        29.68R WCI   3
BEACH          CLOUDY    21  19  93 W14       29.74R WCI   8
CROSBY         CLOUDY    28  28 100 NW9       29.70R WCI  20
TIOGA          CLOUDY    28  28 100 NW15      29.67R FOG     WCI  17
WATFORD CITY   CLOUDY    27  27 100 W10       29.70S WCI  17
BISMARCK       CLOUDY    28  26  92 W6        29.70R WCI  22
GRAND FORKS    CLOUDY    34  32  92 W6        29.65R FOG     WCI  29
FARGO          FOG       35  33  92 W3        29.65S VSB 3/4
BUFFALO SD       N/A     19  16  88 W12       29.65R WCI   7
RAPID CITY     CLOUDY    28  19  69 W10       29.73R WCI  19
$$

REGIONAL REPORTS...WYOMING/IDAHO/WASHINGTON

CITY           SKY/WX    TMP DP  RH WIND       PRES   REMARKS
GILLETTE       CLOUDY    24  20  84 W7        29.76R WCI  16
SHERIDAN       CLOUDY    27  18  69 W7        29.78R WCI  19
BUFFALO WY     CLOUDY    29  15  56 NW5       29.77R
CODY           CLOUDY    33  17  51 NW14      29.80R WCI  23
YELLOWSTONE LA   N/A     14  13  95 CALM      29.84R
IDAHO FALLS    CLOUDY    23  22  96 CALM      29.91F
SALMON         CLOUDY    12  10  92 CALM      29.89R
BOISE          PTCLDY    34  27  75 E14       29.78F WCI  25
SPOKANE        MOCLDY    34  32  92 SE8       29.72R WCI  27
$$

REGIONAL REPORTS...ALBERTA

CITY           SKY/WX    TMP DP  RH WIND       PRES   REMARKS
EDMONTON       CLOUDY    18  12  79 NE5       29.90R VSB 5/8
CALGARY        CLOUDY    23  21  93 NE7       29.80R FOG     WCI  15
LETHBRIDGE     CLOUDY    23 N/A N/A W6        29.81R HAZE    WCI  16
MEDICINE HAT   MOCLDY    28  27  93 NW3       29.81S FOG
WATERTON GATE    N/A     23  23 100 NE2         N/A
CARDSTON         N/A     23  19  86 W2          N/A
MILK RIVER       N/A     25  25 100 NW9         N/A  WCI  15
$$

REGIONAL REPORTS...SASKATCHEWAN

CITY           SKY/WX    TMP DP  RH WIND       PRES   REMARKS
SWIFT CURRENT  CLOUDY    25  25 100 NW15G21   29.70R WCI  12
REGINA         FLURRIES  25  25 100 NW5       29.66R
SASKATOON      LGT SNOW  27  23  86 N12       29.72R WCI  16
CYPRESS HILLS    N/A     21  19  93 NW6         N/A  WCI  14
VAL MARIE        N/A     27  25  93 W10         N/A  WCI  17
ROCKGLEN         N/A     27  25  93 NW8         N/A  WCI  18
ASSINIBOIA       N/A     18  18 100 N6          N/A  WCI   9
$$




USA.gov is the U.S. government's official web portal to all federal, state and local government web resources and services.